ELECTRON KICK STAGE R/B (49953 NORAD) Tracking and Keplerian Element Data
This shows tracking and keplerian element data for the satellite.
Feedback or suggestion? Click here.
Element | Value |
Catalog | 49953 |
Name | ELECTRON KICK STAGE R/B |
Epoch Orbit | 80 |
Epoch Day | 348.24934278 |
Epoch Year | 2021 |
RAAN | 339.1822 |
Inclination | 42.0242 |
Eccentricity | 0.0053099 |
Argument of Perigee | 116.2646 |
Mean Anonmoly | 244.3699 |
Mean Motion | 16.35251462 |
Decay Rate | 0.12583667 |
L1 | 1 49953U 21120E 21348.24934278 .12583667 81711-5 57118-3 0 9999 |
L2 | 2 49953 42.0242 339.1822 0053099 116.2646 244.3699 16.35251462 806 |
Live tracking and technical data element details for ELECTRON KICK STAGE R/B (NORAD 49953). ELECTRON KICK STAGE R/B can be tracked NOW for your location showing map with azimuth and elevation plus other details from your city location.
Track the satellite on the map from your city or location and see movement details for azimuth, elevation, latitude, longitude, range, height, and movement on the map or in text.
IsCatalogInMostPopularTable: catalog: 49953, numindb: 22
Update: records affected: 1
GetName: 49953 ELECTRON KICK STAGE R/B
Hit Count: updated at: Sun, 22 May 2022 04:39:19 GMT